Location: Mauries
(43.6188°N, 0.3322°W)
Time: 05:43:49
(UTC+00:00)

Cosmos 1408 Rocket - Visible Passes

Search period start: 19 April 2026 00:00
Search period end: 29 April 2026 00:00
Orbit: 594 x 623 km, 82.6° (Epoch: 18 April)

Date Brightness Start Highest point End Pass type
(mag) Time Alt. Az. Time Alt. Az. Time Alt. Az.
19 Apr 4.7 04:08:16 10° N 04:12:25 47° ENE 04:16:32 10° SSE visible
20 Apr 3.6 04:22:05 10° N 04:26:23 82° E 04:30:39 10° S visible
21 Apr 6.6 03:00:08 10° NE 03:02:15 13° ENE 03:04:21 10° E visible
21 Apr 3.6 04:36:04 10° NNW 04:40:17 56° W 04:44:27 10° S visible
22 Apr 6.1 03:13:05 10° NNE 03:16:25 22° ENE 03:19:43 10° ESE visible
23 Apr 5.2 03:26:32 10° N 03:30:29 35° ENE 03:34:24 10° SE visible
24 Apr 4.0 03:40:15 10° N 03:44:30 61° E 03:48:42 10° SSE visible
25 Apr 6.8 02:19:48 10° ENE 02:20:12 10° ENE 02:20:36 10° ENE visible
25 Apr 3.4 03:54:08 10° NNW 03:58:25 76° W 04:02:40 10° S visible
26 Apr 6.3 02:31:36 10° NNE 02:34:24 17° ENE 02:37:12 10° ESE visible
26 Apr 3.9 04:08:13 10° NNW 04:12:16 43° W 04:16:18 10° SSW visible
27 Apr 5.5 02:44:51 10° NNE 02:48:32 27° ENE 02:52:11 10° SE visible
27 Apr 4.6 04:22:32 10° NNW 04:26:04 25° W 04:29:34 10° SW visible
28 Apr 4.5 02:58:26 10° N 03:02:34 45° ENE 03:06:40 10° SSE visible
